Location: Étouvelles
(49.5207°N, 3.5808°E)
Time: 16:32:12
(UTC+00:00)

Cosmos 1461 - Pass Details

Date: 03 February 2023
Orbit: 492 x 644 km, 65.0° (Epoch: 25 March)

Event Time Altitude Azimuth Distance (km) Brightness Sun altitude
Rises 17:32:55 0° 184° (S) 2,735 6.7 -8.2°
Reaches altitude 10° 17:35:20 10° 172° (S) 1,874 5.6 -8.6°
Maximum altitude 17:38:52 26° 115° (ESE) 1,176 4.1 -9.2°
Enters shadow 17:42:05 12° 63° (ENE) 1,817 4.8 -9.7°
